N5VKM Weather Reports


Display with metric or nautical units.
time (UTC)temp
F
wind
direction
speed
MPH
gust
MPH
rain 1hr
in
rain 24hr
in
rain mn
in
humidity
%
barometer
mb
20260503225052 81 333 0.0 0.0 0.00 0.00 0.00 34 1015.6
20260503224545 81 335 0.0 0.0 0.00 0.00 0.00 35 1015.6
20260503224035 82 335 0.0 0.0 0.00 0.00 0.00 35 1015.7
20260503223544 82 334 0.0 0.0 0.00 0.00 0.00 35 1015.7
20260503223037 81 335 0.0 0.0 0.00 0.00 0.00 34 1015.8
20260503222530 82 333 0.0 0.0 0.00 0.00 0.00 34 1015.8
20260503222048 82 335 0.0 0.0 0.00 0.00 0.00 35 1015.9
20260503221536 82 334 0.0 0.0 0.00 0.00 0.00 35 1015.9
20260503221042 83 335 0.0 0.0 0.00 0.00 0.00 34 1015.9
20260503220532 83 335 0.0 0.0 0.00 0.00 0.00 34 1016.0
20260503220043 83 333 0.0 0.0 0.00 0.00 0.00 34 1015.9
20260503215529 82 335 0.0 0.0 0.00 0.00 0.00 33 1016.0
20260503215027 82 334 0.0 0.0 0.00 0.00 0.00 34 1016.1
20260503214538 83 334 0.0 0.0 0.00 0.00 0.00 34 1016.1
20260503214049 83 334 0.0 0.0 0.00 0.00 0.00 36 1016.1
20260503213541 82 333 0.0 0.0 0.00 0.00 0.00 35 1016.2
20260503213050 82 334 0.0 0.0 0.00 0.00 0.00 33 1016.3
20260503212538 82 334 0.0 0.0 0.00 0.00 0.00 33 1016.4
20260503212044 82 333 0.0 0.0 0.00 0.00 0.00 33 1016.6
20260503211559 83 334 0.0 0.0 0.00 0.00 0.00 33 1016.7
20260503211048 83 334 0.0 0.0 0.00 0.00 0.00 34 1016.7
20260503210536 83 336 0.0 0.0 0.00 0.00 0.00 34 1016.7
20260503210044 83 333 0.0 0.0 0.00 0.00 0.00 35 1016.9
20260503205532 83 333 0.0 0.0 0.00 0.00 0.00 36 1017.0
20260503205046 83 334 0.0 0.0 0.00 0.00 0.00 36 1017.0
20260503204534 83 334 0.0 0.0 0.00 0.00 0.00 35 1017.1
20260503204041 83 334 0.0 0.0 0.00 0.00 0.00 36 1017.2
20260503203532 83 334 0.0 0.0 0.00 0.00 0.00 35 1017.3
20260503203049 83 336 0.0 0.0 0.00 0.00 0.00 34 1017.4
20260503202539 83 332 0.0 0.0 0.00 0.00 0.00 35 1017.5
20260503202027 83 334 0.0 0.0 0.00 0.00 0.00 35 1017.6
20260503201541 83 335 0.0 0.0 0.00 0.00 0.00 35 1017.7
20260503201052 83 333 0.0 0.0 0.00 0.00 0.00 34 1017.7
20260503200540 83 336 0.0 0.0 0.00 0.00 0.00 33 1017.8
20260503200048 83 336 0.0 0.0 0.00 0.00 0.00 34 1017.9
20260503195555 83 336 0.0 0.0 0.00 0.00 0.00 35 1018.0
20260503195027 82 333 0.0 0.0 0.00 0.00 0.00 36 1018.1
20260503194601 82 336 0.0 0.0 0.00 0.00 0.00 35 1018.1
20260503194031 82 333 0.0 0.0 0.00 0.00 0.00 37 1018.3
20260503193605 82 335 0.0 0.0 0.00 0.00 0.00 36 1018.4
20260503193032 82 335 0.0 0.0 0.00 0.00 0.00 36 1018.4
20260503192530 82 335 0.0 0.0 0.00 0.00 0.00 36 1018.6
20260503192038 82 336 0.0 0.0 0.00 0.00 0.00 38 1018.6
20260503191532 81 336 0.0 0.0 0.00 0.00 0.00 37 1018.6
20260503191046 81 335 0.0 0.0 0.00 0.00 0.00 37 1018.6
20260503190539 82 333 0.0 0.0 0.00 0.00 0.00 36 1018.7
20260503190029 81 334 0.0 0.0 0.00 0.00 0.00 37 1018.7
20260503185540 81 335 0.0 0.0 0.00 0.00 0.00 38 1018.8
20260503185030 81 334 0.0 0.0 0.00 0.00 0.00 38 1018.9
20260503184539 81 335 0.0 0.0 0.00 0.00 0.00 42 1018.9
20260503184029 81 335 0.0 0.0 0.00 0.00 0.00 39 1018.9
20260503183546 81 335 0.0 0.0 0.00 0.00 0.00 40 1019.0
20260503183039 81 335 0.0 0.0 0.00 0.00 0.00 41 1019.1
20260503182533 81 333 0.0 0.0 0.00 0.00 0.00 40 1019.2
20260503182041 81 334 0.0 0.0 0.00 0.00 0.00 41 1019.3
20260503181528 81 334 0.0 0.0 0.00 0.00 0.00 42 1019.5
20260503181102 81 335 0.0 0.0 0.00 0.00 0.00 42 1019.5
20260503180549 80 336 0.0 0.0 0.00 0.00 0.00 42 1019.7
20260503180040 81 335 0.0 0.0 0.00 0.00 0.00 43 1019.7
20260503175529 81 335 0.0 0.0 0.00 0.00 0.00 44 1019.8
20260503175046 80 334 0.0 0.0 0.00 0.00 0.00 44 1019.9
20260503174534 80 336 0.0 0.0 0.00 0.00 0.00 44 1020.0
20260503174044 80 336 0.0 0.0 0.00 0.00 0.00 44 1020.1
20260503173534 80 334 0.0 0.0 0.00 0.00 0.00 46 1020.2
20260503173047 79 335 0.0 0.0 0.00 0.00 0.00 44 1020.2
20260503172533 79 333 0.0 0.0 0.00 0.00 0.00 45 1020.3
20260503172030 78 335 0.0 0.0 0.00 0.00 0.00 45 1020.4
20260503171539 79 335 0.0 0.0 0.00 0.00 0.00 46 1020.4
20260503171048 78 336 0.0 0.0 0.00 0.00 0.00 47 1020.5
20260503170543 79 335 0.0 0.0 0.00 0.00 0.00 46 1020.5
20260503150534 73 336 0.0 0.0 0.00 0.00 0.00 52 1021.1
20260503131047 61 336 0.0 0.0 0.00 0.00 0.00 74 1020.8
20260503130534 60 339 0.0 0.0 0.00 0.00 0.00 75 1020.8
20260503130109 60 337 0.0 0.0 0.00 0.00 0.00 76 1020.9
20260503110531 53 336 0.0 0.0 0.00 0.00 0.00 82 1020.1
20260503081533 58 336 0.0 0.0 0.00 0.00 0.00 69 1019.8
20260503081040 58 336 0.0 0.0 0.00 0.00 0.00 69 1019.9
20260503080527 58 336 0.0 0.0 0.00 0.00 0.00 69 1019.9
20260503072541 60 336 0.0 0.0 0.00 0.00 0.00 66 1020.1
20260503072031 60 336 0.0 0.0 0.00 0.00 0.00 65 1020.1
20260503071537 60 336 0.0 0.0 0.00 0.00 0.00 65 1020.1
20260503071049 60 336 0.0 0.0 0.00 0.00 0.00 65 1020.2
20260503070606 60 336 0.0 0.0 0.00 0.00 0.00 64 1020.2
20260503055039 62 336 0.0 0.0 0.00 0.00 0.00 61 1020.1
20260503054532 62 336 0.0 0.0 0.00 0.00 0.00 61 1020.0
20260503054040 62 337 0.0 0.0 0.00 0.00 0.00 61 1020.0
20260503053548 62 336 0.0 0.0 0.00 0.00 0.00 61 1020.0
20260503053101 62 336 0.0 0.0 0.00 0.00 0.00 61 1020.0
20260503052547 62 336 0.0 0.0 0.00 0.00 0.00 61 1020.0
20260503052037 62 336 0.0 0.0 0.00 0.00 0.00 61 1019.9
20260503051534 62 336 0.0 0.0 0.00 0.00 0.00 61 1019.8
20260503051104 62 336 0.0 0.0 0.00 0.00 0.00 61 1019.8
20260503050537 63 336 0.0 0.0 0.00 0.00 0.00 62 1019.8
20260503050044 63 336 0.0 0.0 0.00 0.00 0.00 62 1019.8
20260503045535 63 336 0.0 0.0 0.00 0.00 0.00 61 1019.8
20260503045030 63 336 0.0 0.0 0.00 0.00 0.00 62 1019.7
20260503044541 63 336 0.0 0.0 0.00 0.00 0.00 62 1019.7
20260503044029 63 336 0.0 0.0 0.00 0.00 0.00 62 1019.7
20260503043540 63 336 0.0 0.0 0.00 0.00 0.00 63 1019.7
20260503043028 63 336 0.0 0.0 0.00 0.00 0.00 63 1019.7
20260503042601 63 336 0.0 0.0 0.00 0.00 0.00 63 1019.7
20260503042027 63 334 0.0 0.0 0.00 0.00 0.00 62 1019.7
20260503041601 63 334 0.0 0.0 0.00 0.00 0.00 63 1019.7
20260503041046 63 334 0.0 0.0 0.00 0.00 0.00 63 1019.7
20260503040553 63 334 0.0 0.0 0.00 0.00 0.00 63 1019.8
20260503040040 63 334 0.0 0.0 0.00 0.00 0.00 63 1019.7
20260503035530 63 334 0.0 0.0 0.00 0.00 0.00 64 1019.8
20260503035047 63 334 0.0 0.0 0.00 0.00 0.00 63 1019.7
20260503034534 64 334 0.0 0.0 0.00 0.00 0.00 63 1019.7
20260503034047 64 334 0.0 0.0 0.00 0.00 0.00 64 1019.7
20260503033555 64 334 0.0 0.0 0.00 0.00 0.00 64 1019.7
20260503033044 64 334 0.0 0.0 0.00 0.00 0.00 64 1019.7
20260503032532 64 334 0.0 0.0 0.00 0.00 0.00 64 1019.6
20260503032043 64 334 0.0 0.0 0.00 0.00 0.00 64 1019.6
20260503031531 64 334 0.0 0.0 0.00 0.00 0.00 64 1019.5
20260503031107 65 334 0.0 0.0 0.00 0.00 0.00 63 1019.6
20260503030535 65 334 0.0 0.0 0.00 0.00 0.00 62 1019.5
20260503030043 65 334 0.0 0.0 0.00 0.00 0.00 62 1019.4
20260503025534 65 334 0.0 0.0 0.00 0.00 0.00 61 1019.5
20260503025041 65 334 0.0 0.0 0.00 0.00 0.00 60 1019.4
20260503024548 65 334 0.0 0.0 0.00 0.00 0.00 60 1019.3
20260503024036 66 334 0.0 0.0 0.00 0.00 0.00 61 1019.3
20260503023530 66 334 0.0 0.0 0.00 0.00 0.00 62 1019.3
20260503023041 66 333 0.0 0.0 0.00 0.00 0.00 62 1019.2
20260503022533 67 333 0.0 0.0 0.00 0.00 0.00 61 1019.2
20260503022104 67 333 0.0 0.0 0.00 0.00 0.00 61 1019.2
20260503021535 67 333 0.0 0.0 0.00 0.00 0.00 59 1019.2
20260503021032 68 333 0.0 0.0 0.00 0.00 0.00 59 1019.1
20260503020540 68 333 0.0 0.0 0.00 0.00 0.00 59 1019.0
20260503020031 69 333 0.0 0.0 0.00 0.00 0.00 59 1019.0
20260503015541 69 333 0.0 0.0 0.00 0.00 0.00 58 1019.0
20260503015034 69 333 0.0 0.0 0.00 0.00 0.00 57 1019.0
20260503014608 70 333 0.0 0.0 0.00 0.00 0.00 55 1018.9
20260503014043 70 333 0.0 0.0 0.00 0.00 0.00 54 1018.8
20260503013534 71 333 0.0 0.0 0.00 0.00 0.00 53 1018.9
20260503013108 71 333 0.0 0.0 0.00 0.00 0.00 51 1018.8
20260503012553 72 333 0.0 0.0 0.00 0.00 0.00 50 1018.7
20260503012042 72 333 0.0 0.0 0.00 0.00 0.00 49 1018.7
20260503011530 73 333 0.0 0.0 0.00 0.00 0.00 48 1018.7
20260503011059 73 333 0.0 0.0 0.00 0.00 0.00 48 1018.7
20260503010546 73 333 0.0 0.0 0.00 0.00 0.00 48 1018.6
20260503010035 74 333 0.0 0.0 0.00 0.00 0.00 47 1018.6
20260503005543 74 333 0.0 0.0 0.00 0.00 0.00 46 1018.5
20260503005037 74 333 0.0 0.0 0.00 0.00 0.00 46 1018.5
20260503004607 74 331 0.0 0.0 0.00 0.00 0.00 46 1018.4
20260503004053 74 331 0.0 0.0 0.00 0.00 0.00 46 1018.5
20260503003529 74 331 0.0 0.0 0.00 0.00 0.00 45 1018.5
20260503003103 74 331 0.0 0.0 0.00 0.00 0.00 45 1018.5
20260503002536 74 331 0.0 0.0 0.00 0.00 0.00 44 1018.5
20260503002044 74 333 0.0 0.0 0.00 0.00 0.00 44 1018.4
20260503001532 74 333 0.0 0.0 0.00 0.00 0.00 44 1018.5
20260503001041 74 337 0.0 0.0 0.00 0.00 0.00 44 1018.4
20260503000541 74 337 0.0 0.0 0.00 0.00 0.00 43 1018.4
20260503000111 75 337 0.0 0.0 0.00 0.00 0.00 43 1018.5
20260502235535 75 338 0.0 0.0 0.00 0.00 0.00 42 1018.6
20260502235048 75 338 0.0 0.0 0.00 0.00 0.00 42 1018.5
20260502234541 75 338 0.0 0.0 0.00 0.00 0.00 42 1018.6
20260502234055 75 337 0.0 0.0 0.00 0.00 0.00 41 1018.6
20260502233604 75 337 0.0 0.0 0.00 0.00 0.00 40 1018.6
20260502233034 76 337 0.0 0.0 0.00 0.00 0.00 43 1018.6
20260502232542 75 337 0.0 0.0 0.00 0.00 0.00 42 1018.6
20260502232035 76 336 0.0 0.0 0.00 0.00 0.00 41 1018.6
20260502231546 75 337 0.0 0.0 0.00 0.00 0.00 43 1018.6
20260502231034 76 338 0.0 0.0 0.00 0.00 0.00 41 1018.6
20260502230544 76 338 0.0 0.0 0.00 0.00 0.00 41 1018.7
20260502230033 76 337 0.0 0.0 0.00 0.00 0.00 41 1018.7
20260502225543 76 338 0.0 0.0 0.00 0.00 0.00 41 1018.7